Theta_e
337 338 341 340 337 338 339 343 338 332 332 331 331 332 333 333 333 334 340 343 344 343 338 340 340 333 334 333 337 338 326 323 321 328 332 334 334 337 337 338 342 343 336
344 342 340 339 338 337 342 341 336 336 332 331 331 332 333 333 333 339 342 340 341 342 341 336 335 333 336 336 338 340 326 329 337 336 336 333 336 331 334 340 346 339 337
344 345 345 342 341 344 343 337 338 335 331 331 332 332 333 334 334 333 337 341 338 337 337 339 339 337 338 340 342 338 329 333 339 337 342 343 342 330 328 339 339 339 339
347 346 346 345 344 343 339 338 336 332 331 331 332 331 332 334 334 334 341 340 339 338 338 338 339 338 339 341 341 341 333 328 332 338 344 343 340 327 323 327 337 338 339
345 348 346 343 342 340 338 337 333 331 331 332 330 329 332 335 335 336 340 342 339 337 337 339 340 340 340 341 342 339 337 333 328 344 346 344 340 340 336 340 333 330 336
348 350 340 340 341 338 336 333 331 331 331 331 331 331 334 336 338 341 343 344 337 337 339 341 342 343 343 343 342 341 339 340 341 341 344 344 342 334 338 341 338 331 327
349 348 341 338 336 334 332 331 331 331 331 331 335 333 335 338 338 338 342 340 337 341 343 343 343 342 340 340 338 337 339 339 345 341 344 342 337 335 341 335 337 337 338
348 346 344 331 332 332 331 331 330 330 332 334 336 336 338 339 338 339 339 337 340 343 343 343 342 341 340 341 341 339 336 341 346 341 342 344 334 337 336 332 332 336 337
348 345 344 342 337 332 332 330 330 331 333 337 336 338 339 340 339 338 338 337 339 342 342 342 340 340 341 339 341 340 339 337 346 343 341 341 340 339 334 326 336 333 333
347 344 344 345 346 346 334 330 331 331 333 336 338 341 341 340 340 339 338 340 341 342 342 339 340 340 340 340 338 340 340 342 344 344 340 341 338 338 331 330 322 331 322
347 344 343 344 346 346 346 333 330 331 333 334 343 344 345 352 351 350 341 340 343 344 341 339 339 340 342 337 337 338 343 342 342 341 345 331 337 336 333 334 327 329 322
347 344 343 344 345 345 344 342 343 342 343 346 347 347 351 350 349 349 343 341 341 344 343 340 340 342 341 338 338 341 345 342 341 341 340 337 333 336 332 336 335 331 325
348 344 343 345 346 345 345 346 345 345 345 345 343 348 351 350 348 351 349 347 347 343 347 348 348 346 342 339 336 336 340 339 338 338 335 336 338 337 332 339 336 331 332
348 346 344 344 346 346 345 345 345 345 345 344 344 342 346 349 351 352 350 348 344 347 347 348 347 347 346 343 339 337 336 338 338 338 336 334 336 341 336 336 331 331 333
347 347 346 346 346 346 346 344 344 346 345 344 344 344 350 350 351 351 351 349 348 349 348 347 346 347 342 340 341 339 338 338 339 339 341 334 333 336 341 338 332 336 331
346 346 346 346 346 344 345 346 347 347 346 345 344 344 343 348 346 351 350 349 349 350 350 346 346 347 342 342 344 341 336 338 338 339 339 338 335 334 337 339 339 336 328
346 345 346 346 347 341 341 340 345 346 346 344 343 339 342 342 344 346 349 349 349 351 343 345 346 346 344 340 340 337 337 338 339 338 340 342 341 336 334 338 338 339 336
345 346 347 346 347 346 346 345 345 346 346 343 342 344 342 344 345 346 347 349 350 347 346 350 347 345 341 338 339 338 336 339 339 338 339 342 341 343 337 335 336 338 339
347 348 349 349 348 349 347 348 345 346 344 343 342 346 345 343 345 347 353 352 347 351 349 348 347 346 341 340 338 337 335 338 336 336 338 340 341 340 342 335 335 335 335
349 349 350 350 350 349 349 348 348 346 342 342 343 345 344 342 344 346 352 346 348 350 350 349 343 344 342 340 337 335 337 338 337 337 336 337 341 340 341 343 342 340 337
350 351 351 351 350 348 349 348 346 344 343 342 344 343 344 342 344 345 351 348 351 350 347 347 347 345 342 340 335 337 337 337 337 337 336 336 337 338 337 338 340 340 339
349 350 351 350 346 341 347 348 346 344 343 343 345 348 346 345 346 345 345 349 350 351 345 346 341 345 342 335 337 337 336 336 336 336 336 335 335 334 334 335 340 341 338
348 350 351 348 347 342 348 350 348 345 345 346 346 350 350 345 345 345 343 346 350 348 350 346 345 345 341 337 336 339 336 336 336 336 338 336 337 334 334 336 336 338 337
348 350 351 351 350 348 340 348 346 345 344 345 346 349 351 347 346 346 344 345 345 351 352 348 349 346 343 338 338 337 337 339 337 338 336 338 337 336 336 335 335 336 335
349 350 351 351 346 351 342 346 351 348 347 346 347 349 351 352 347 351 346 345 346 346 350 349 347 343 346 337 338 338 337 337 337 337 338 337 338 336 337 336 335 335 336
349 350 351 351 341 343 341 341 349 351 349 348 349 350 351 350 351 347 350 345 346 347 347 351 348 344 341 336 337 338 336 336 336 337 337 337 337 337 336 335 336 336 335
Wind_Speed
39 33 30 31 32 25 21 20 21 21 19 16 15 13 11 10 10 11 12 9 9 8 8 8 7 8 9 9 9 11 9 7 8 8 8 8 8 8 10 14 13 8 11
35 31 33 30 28 24 20 20 22 20 17 15 14 12 11 10 10 11 10 11 9 9 8 8 7 8 9 7 6 8 11 10 10 9 10 9 10 10 12 16 15 11 11
34 30 28 27 26 23 22 23 21 19 16 15 12 10 10 10 10 9 10 9 10 9 8 8 7 8 8 8 8 9 10 9 9 11 16 8 7 10 11 13 12 12 12
26 28 23 27 25 24 23 23 21 17 16 14 11 10 9 9 9 10 11 9 9 10 9 8 8 8 7 7 7 7 9 9 7 10 9 8 6 11 12 12 11 11 12
29 20 23 25 25 25 23 22 18 16 15 13 11 10 10 9 9 11 12 9 10 11 11 10 9 9 7 6 6 6 6 9 8 10 5 9 6 8 11 12 11 10 12
22 22 27 25 26 25 23 20 18 16 14 12 10 10 10 10 10 10 9 9 10 12 14 15 14 12 10 7 6 5 4 7 12 7 7 12 8 9 11 10 10 9 10
24 23 25 27 27 25 21 19 17 15 14 11 10 11 10 10 9 10 9 9 12 14 16 16 14 13 12 10 9 9 5 6 7 8 7 5 8 11 11 10 9 11 11
25 24 25 28 25 22 20 18 16 15 13 11 11 11 11 10 9 8 9 10 11 13 14 15 13 12 12 11 10 10 9 9 7 7 9 6 8 10 9 9 10 9 9
25 24 24 23 24 22 19 18 16 15 13 11 12 11 10 9 8 8 9 10 11 12 11 12 12 11 10 10 10 9 10 9 7 5 7 6 9 10 7 8 9 9 9
26 24 23 21 20 17 18 18 16 14 12 10 10 9 9 8 8 7 8 8 10 9 9 10 10 10 9 9 7 8 10 13 7 6 6 4 7 7 5 7 7 8 8
26 25 24 22 20 18 16 18 16 14 12 10 9 8 6 5 4 5 5 7 7 7 7 9 9 9 9 11 9 6 10 4 6 6 4 4 6 6 4 5 6 6 7
28 27 25 23 20 18 15 15 13 10 8 7 6 6 6 5 5 6 4 6 4 4 4 6 7 11 11 7 7 6 6 1 4 4 3 3 6 5 3 6 5 5 6
27 27 25 24 21 19 16 14 12 10 9 8 9 7 5 4 2 3 2 2 1 2 2 4 4 6 5 7 9 7 3 4 3 2 1 3 4 6 5 5 5 4 5
28 27 25 23 22 20 16 14 13 12 10 8 7 8 5 3 0 4 3 3 3 2 2 1 5 3 3 4 6 8 5 3 2 3 2 5 4 6 6 7 4 5 5
28 27 25 23 22 21 18 14 13 13 11 9 8 8 6 4 3 2 2 2 3 2 1 1 2 2 1 1 3 5 4 3 2 3 1 5 5 3 5 7 7 5 5
27 26 24 23 22 22 19 16 14 13 12 11 9 8 8 6 5 2 1 1 0 2 2 2 1 3 3 3 2 5 4 3 4 5 3 3 7 6 3 4 7 5 4
28 26 25 24 23 24 22 20 16 13 12 12 11 12 10 9 6 4 3 2 1 3 3 3 2 4 3 4 5 4 3 5 5 6 6 3 4 7 5 3 3 4 4
26 26 25 23 23 23 21 20 17 15 14 13 12 11 13 9 6 5 3 1 2 3 2 2 1 1 2 1 3 3 2 4 8 6 4 3 4 1 4 6 5 3 3
27 26 26 25 24 23 22 19 19 17 16 14 14 13 13 11 9 6 5 3 2 1 3 1 3 2 1 1 1 1 2 2 6 4 3 3 2 4 3 2 5 5 4
26 26 25 25 24 24 21 21 18 18 17 16 15 15 16 14 12 9 7 8 2 2 1 2 1 0 1 1 2 1 6 6 5 4 5 4 3 3 2 2 1 1 1
28 28 28 27 28 27 25 23 22 21 19 17 17 19 19 16 13 12 9 10 4 4 2 0 2 2 1 3 6 7 5 4 5 4 5 4 4 3 2 2 3 4 2
30 29 29 29 30 31 27 25 22 21 19 18 17 18 21 18 16 14 11 11 8 4 3 1 1 0 1 4 5 5 7 5 5 4 4 4 5 5 4 4 3 4 3
33 32 32 32 31 31 26 23 22 20 20 19 20 19 19 18 16 14 11 10 9 4 5 3 1 3 1 4 8 3 4 3 7 5 4 4 3 3 3 5 5 4 5
36 33 33 34 33 30 32 24 27 25 23 21 21 19 17 20 18 16 14 11 10 7 8 4 3 4 4 5 6 6 6 4 5 7 7 7 6 4 4 3 2 3 4
33 33 32 34 37 32 34 30 27 26 21 19 19 21 23 18 21 17 16 16 14 10 10 9 6 3 6 7 6 6 6 7 7 5 6 7 8 8 6 4 4 3 3
33 32 31 34 40 39 38 37 34 28 25 22 21 20 20 20 19 23 19 18 17 15 12 9 8 7 7 7 8 8 6 5 4 5 5 5 7 7 9 9 8 7 7
Wind_Direction
144 144 146 147 149 148 141 137 135 136 132 129 124 120 112 101 99 93 96 96 98 98 109 115 106 100 83 85 76 44 45 86 110 125 118 115 123 126 117 106 88 120 114
145 149 148 149 152 152 147 142 141 140 135 131 127 118 109 105 94 92 89 90 93 89 96 102 104 92 85 79 50 57 52 80 100 115 114 99 109 115 124 124 136 128 125
145 150 157 153 152 150 148 145 142 141 140 134 126 116 115 106 97 98 99 93 88 88 93 99 105 100 96 82 65 66 61 88 92 107 93 93 112 118 131 136 136 122 123
143 150 154 152 153 149 148 145 145 146 140 134 126 121 116 103 101 101 96 83 83 83 86 91 97 109 95 77 64 67 64 72 94 105 88 129 107 114 122 140 136 130 121
148 145 151 151 154 151 150 149 149 146 139 135 126 122 119 107 101 97 91 88 80 79 83 90 91 94 98 80 76 71 83 68 90 79 121 112 106 120 123 120 122 130 123
144 145 149 150 155 154 153 153 151 144 141 134 124 123 119 113 106 99 97 89 88 86 81 84 84 82 78 80 83 75 101 66 71 106 97 117 125 126 116 124 127 125 126
147 150 150 155 155 156 155 155 150 147 141 134 125 124 120 112 106 104 99 90 93 91 85 83 82 79 81 83 78 64 103 78 95 104 123 108 117 119 118 112 117 123 118
149 151 157 158 158 158 157 156 152 148 143 134 128 125 118 108 102 100 100 96 100 94 88 81 71 72 74 72 68 66 80 98 95 109 125 121 131 119 118 122 114 116 116
151 157 155 159 164 162 160 158 153 149 144 132 129 123 116 108 100 97 99 106 107 98 88 77 72 69 70 66 60 62 69 77 100 124 109 113 141 129 123 123 120 117 119
156 163 160 164 164 161 163 160 155 152 148 143 134 129 118 107 95 93 96 115 115 104 90 78 81 71 61 43 47 55 68 69 88 99 113 174 142 131 114 129 135 122 125
162 167 167 169 170 168 166 166 160 160 156 152 139 130 111 98 90 75 149 135 122 107 94 77 73 69 61 44 32 64 74 77 77 86 110 148 146 132 124 135 130 117 124
168 171 174 175 177 174 173 180 172 170 168 161 159 167 118 144 133 128 120 134 126 120 91 75 68 62 57 54 31 53 73 78 81 71 107 128 150 141 149 147 138 147 142
174 175 180 179 181 182 181 183 186 185 189 192 174 158 182 148 135 121 147 100 158 110 64 49 22 47 76 59 52 61 95 83 39 82 24 89 143 152 163 159 169 154 145
181 180 183 186 186 188 192 190 193 193 195 193 200 188 185 137 109 141 140 156 130 160 161 63 39 71 75 46 82 58 68 73 70 85 54 66 109 173 161 165 190 184 169
186 184 187 190 192 192 193 198 197 199 204 204 207 205 190 177 182 136 156 126 136 138 46 31 10 13 63 355 77 49 42 65 65 118 148 70 65 113 176 173 184 202 198
190 189 189 192 196 195 197 196 202 204 207 206 209 211 202 189 185 171 186 167 177 234 268 294 24 35 16 26 137 60 78 54 40 146 132 69 61 62 106 182 199 190 197
193 192 193 195 198 201 202 205 205 210 209 209 208 211 196 188 207 189 215 142 256 278 297 298 9 5 44 63 91 62 70 81 50 121 120 116 27 54 73 100 171 204 210
196 196 195 197 202 204 205 207 205 211 210 210 210 209 199 203 210 232 264 274 264 314 344 302 357 30 19 114 112 69 70 100 88 99 122 135 146 105 43 71 100 139 182
200 199 199 198 202 203 206 206 208 212 209 209 210 210 212 215 224 244 264 298 298 12 316 116 34 33 44 83 53 24 92 109 97 92 94 124 163 139 155 7 82 100 108
203 202 201 200 200 203 204 206 209 212 211 211 213 214 218 225 239 254 259 255 260 285 302 114 131 5 156 226 293 159 143 123 124 99 72 106 153 131 169 191 330 151 33
203 205 204 202 205 205 204 205 206 208 210 213 216 216 220 226 237 248 247 255 236 254 245 155 23 357 347 314 126 126 137 136 144 119 100 98 110 152 171 226 163 203 268
204 205 206 206 207 210 209 206 207 207 213 216 218 219 219 232 240 247 248 236 236 247 290 280 138 152 331 155 159 153 149 144 159 148 139 116 108 106 86 98 134 152 115
206 206 207 209 208 211 204 207 208 208 209 217 216 220 226 232 229 231 237 238 238 222 269 279 267 172 227 180 165 193 165 157 167 186 188 175 143 112 102 84 103 126 137
208 207 209 212 211 212 211 206 210 209 213 215 216 219 222 224 223 230 240 242 234 229 237 269 243 206 176 191 194 211 207 168 219 170 211 212 205 197 178 121 98 118 130
206 207 208 212 215 210 212 205 214 212 218 216 216 219 225 228 225 229 237 239 242 242 250 234 272 240 220 193 200 209 221 226 237 248 217 207 226 226 234 215 217 223 204
206 207 208 212 215 215 216 215 217 216 208 212 216 218 221 222 228 226 228 233 241 236 241 251 258 253 214 215 205 208 210 210 237 233 247 249 243 225 234 239 241 242 242